Погода в Аксиньино

Россия / Тульская область     54°30′18″N   38°20′46″E
темп.,
°C
ветер,
м/с
пор.,
м/с
влажн.,
%
обл.,
%
осадки,
мм/ч
давл.,
гПа
погр.,
м
13 мая, чт
чт1300:00+7ююв35947 0.0 1019215
03:00+6вюв3596100 0.0 1020102
06:00+7в499541 0.0 1019255
09:00+12вюв698084 0.0 1018525
12:00+15юв61070100 0.0 1017889
15:00+13ююв4991100 2.9 1017473
18:00+15ю6108229 0.7 1015882
21:00+11ююв2293100 2.4 101625
14 мая, пт
пт1400:00+10ююв339260 0.0 101633
03:00+9ююв2291100 0.0 101724
06:00+10юв2491100 0.0 1017101
09:00+16юв4682100 0.1 1016440
12:00+19юв6973100 1.1 1016850
15:00+21юв7107149 1.6 10141404
18:00+20юв71377100 1.0 1011833
21:00+15юв379275 1.6 1011111
15 мая, сб
сб1500:00+14ю4894100 0.6 1011147
03:00+15юв4895100 4.3 1010195
06:00+15юв5119699 1.1 1010304
09:00+19ю578670 2.4 1010453
12:00+21ююз686697 1.4 10101241
15:00+21юз710620 1.4 10101756
18:00+19ююз58710 0.3 1011471
21:00+14ююз33865 0.4 101237
16 мая, вс
вс1600:00+13ююз36935 0.0 101390
03:00+12ююз389436 0.0 1013147
06:00+13ююз499220 0.0 1014283
09:00+16юз697168 0.0 1014730
12:00+19юз56625 0.0 10151171
15:00+21юз45584 0.0 10151496
18:00+20юз23670 0.0 1014731
21:00+15с1180100 0.0 101511
17 мая, пн
пн1700:00+14всв228488 0.0 101617
03:00+13в348926 0.0 101661
06:00+14в398973 0.0 1015232
09:00+19в697780 0.0 1015451
12:00+23вюв796814 0.0 1013897
15:00+25юв61060100 0.0 10121165
18:00+22юв5126889 0.0 1012461
21:00+17вюв413826 0.0 1012247